Theta_e
330 330 333 333 334 334 332 332 333 331 330 330 329 328 329 329 331 331 332 332 330 331 329 330 330 330 330 331 332 332 331 331 331 328 327 328 325 330 333 333 333 334 331 333 329 324 321 315 315 320 323 324 324 324 325 325 325 324 325 325 325 324 324
332 332 332 332 332 333 332 332 332 330 330 331 330 329 330 328 330 330 331 331 331 331 330 329 330 330 330 330 330 328 330 329 331 331 329 328 329 329 330 330 330 329 330 329 330 330 323 320 316 316 317 322 323 323 323 323 323 324 324 324 322 323 325
331 332 332 331 332 332 331 331 331 330 329 330 331 329 329 328 330 330 329 330 331 331 330 330 330 329 329 330 330 330 330 329 330 330 329 329 332 332 330 329 326 326 326 326 327 326 327 323 317 315 317 318 315 318 322 319 317 317 316 317 318 319 321
331 332 331 331 331 331 330 330 329 329 330 329 329 330 329 328 330 330 330 330 331 331 330 328 329 327 328 328 329 329 329 328 327 329 329 330 333 331 331 329 326 325 324 322 321 324 325 320 319 317 319 319 317 314 317 317 314 313 311 312 313 314 315
331 330 331 330 329 330 330 327 329 329 329 329 329 327 329 327 329 329 331 330 330 330 329 328 328 328 328 327 327 327 327 327 328 328 328 328 328 328 328 329 329 329 329 327 327 327 323 321 322 317 317 317 317 316 316 315 314 311 310 310 311 313 313
331 331 331 331 331 330 329 330 328 326 327 326 325 326 326 328 329 329 329 328 328 329 329 328 328 328 327 326 326 327 327 326 326 327 325 327 327 325 325 326 327 327 327 330 330 328 327 325 325 318 319 319 314 314 315 313 311 313 313 311 311 311 312
332 332 331 331 331 331 330 331 330 328 327 326 326 325 324 327 328 329 330 329 329 329 328 328 327 326 326 325 325 325 325 326 326 325 326 326 327 327 328 325 326 325 327 330 331 329 328 324 321 320 318 317 317 313 313 311 313 310 311 312 312 312 312
332 331 331 331 332 330 331 331 331 329 328 327 324 326 326 327 328 329 329 328 328 328 328 327 327 326 325 325 324 325 325 326 325 324 324 325 325 326 327 326 326 326 326 329 329 329 328 328 324 318 320 314 313 315 313 313 313 311 309 310 311 311 311
331 332 331 331 332 332 332 331 330 330 329 326 326 326 326 326 328 328 328 328 327 327 326 325 325 324 324 323 323 325 324 325 324 323 324 325 325 325 326 326 325 324 327 327 329 329 328 331 329 326 321 321 314 308 310 309 310 308 311 309 310 311 310
332 331 330 331 331 332 333 332 331 329 329 327 326 325 326 327 328 327 327 326 325 325 324 324 323 323 324 323 323 323 323 324 324 323 324 324 324 324 324 324 324 323 324 327 329 329 329 329 330 329 329 323 322 312 309 309 308 306 308 312 309 309 311
332 331 331 331 331 332 332 332 331 329 327 327 326 326 326 326 327 327 326 325 324 324 324 324 323 323 322 322 323 323 323 324 323 323 323 323 323 324 324 324 324 322 324 325 326 329 330 328 330 328 327 323 324 318 315 310 308 311 311 311 311 308 311
332 331 330 331 332 330 330 330 330 328 328 327 325 326 325 325 327 326 326 324 324 323 323 323 322 322 321 321 322 322 322 323 322 321 321 322 322 322 322 321 323 321 323 323 323 326 329 329 327 330 327 328 326 325 318 315 309 311 313 309 310 312 311
331 330 331 331 331 330 330 329 329 329 328 326 326 324 324 324 325 326 323 323 322 324 323 322 321 320 321 320 321 321 321 321 320 320 320 320 320 321 320 319 319 320 321 321 321 321 322 326 329 326 325 326 326 326 323 318 314 310 314 311 309 310 311
332 331 331 331 330 330 330 330 329 329 328 326 325 324 323 324 323 324 323 322 322 322 322 320 320 320 319 319 319 319 319 318 318 319 320 319 319 319 318 317 317 317 319 319 318 318 318 321 325 328 327 326 324 323 320 318 314 312 313 313 311 311 311
333 331 331 331 329 329 329 329 330 329 328 326 325 324 323 325 324 323 322 321 322 321 320 318 319 318 317 317 317 317 316 316 316 317 319 317 318 319 318 316 315 316 318 317 317 316 318 318 320 322 326 322 320 320 322 318 316 313 310 313 312 312 311
332 330 330 330 329 327 327 329 329 329 326 326 325 325 323 324 323 322 321 322 321 320 319 318 318 316 316 316 315 315 315 314 313 315 316 316 315 317 316 316 315 316 317 316 316 319 320 320 320 321 321 321 321 321 322 321 317 314 312 311 313 311 312
329 329 328 329 328 327 327 328 329 328 327 326 323 325 324 323 324 324 322 322 320 319 318 318 317 315 314 314 313 311 310 310 311 313 314 315 315 316 315 315 314 315 316 314 316 319 320 322 321 321 322 322 322 321 321 320 318 316 314 310 312 310 311
329 327 329 329 327 326 327 329 329 327 327 325 324 324 323 323 323 322 322 320 319 318 318 317 315 315 314 313 309 308 309 310 312 314 315 314 313 315 314 313 313 314 315 314 317 318 320 321 320 321 321 320 320 321 319 318 317 316 314 312 311 312 312
330 328 328 328 328 327 327 329 329 328 327 325 324 324 323 322 322 321 320 319 319 318 317 316 315 313 312 310 309 311 313 313 313 313 314 315 315 315 314 313 314 314 313 314 316 317 319 319 319 319 319 318 317 318 317 316 317 316 315 313 313 310 312
330 329 328 328 327 326 326 329 328 327 327 325 324 323 323 321 322 321 320 319 318 318 317 316 316 314 311 308 308 310 313 314 314 315 314 314 314 314 314 313 314 314 313 314 315 316 317 318 318 318 318 318 317 317 316 316 315 314 314 313 312 312 310
332 330 329 328 327 327 327 328 328 328 326 324 323 322 322 321 321 321 320 319 319 318 317 316 315 314 312 309 309 310 312 313 312 313 314 313 314 313 314 314 314 315 315 315 317 317 318 316 316 316 316 317 316 315 314 313 313 312 312 312 311 309 310
332 331 330 329 328 328 328 328 328 327 326 325 324 323 322 321 320 319 319 320 318 318 317 316 315 315 312 308 308 309 310 310 311 310 310 310 311 313 313 313 314 313 309 306 304 305 306 307 316 314 314 315 314 313 312 311 311 311 311 311 310 312 310
331 331 329 327 326 327 328 328 327 327 326 324 324 323 322 321 320 319 319 318 318 318 317 317 315 306 308 310 308 307 309 310 308 308 308 309 310 311 311 311 309 305 304 303 301 300 298 299 301 310 315 315 311 311 310 310 310 310 310 308 308 308 308
332 331 329 326 326 326 326 327 327 326 325 324 324 323 322 320 319 319 318 318 318 318 318 315 302 297 297 301 309 308 308 308 308 308 308 308 309 310 310 311 312 308 306 303 302 297 296 296 296 297 296 298 301 312 311 308 309 309 307 308 308 307 307
331 331 330 327 327 326 327 327 327 326 325 324 324 324 322 321 320 320 319 319 318 318 318 307 294 295 296 298 305 308 308 307 307 307 307 307 307 308 309 311 311 312 313 310 308 306 301 297 296 295 294 295 295 293 294 308 310 308 308 308 307 307 308
331 330 329 328 327 327 327 326 326 325 324 325 325 323 322 321 320 320 319 318 318 318 319 296 294 294 295 296 297 305 306 307 306 305 305 305 306 307 307 308 309 307 305 306 308 308 306 304 299 297 299 300 298 296 292 292 294 308 312 309 307 307 308
329 330 330 330 329 328 327 326 327 326 325 325 324 323 323 322 321 320 319 318 318 319 319 298 293 293 295 293 295 298 308 306 306 305 304 304 304 305 305 305 304 305 306 307 309 308 308 308 308 309 308 306 304 303 298 295 296 297 305 311 310 308 310
327 329 330 329 328 327 327 327 326 326 325 324 323 322 322 322 322 321 319 318 318 318 319 295 293 292 293 293 294 297 310 307 307 307 306 305 305 305 305 304 304 303 304 304 307 308 306 306 306 306 306 306 307 308 308 309 309 309 307 310 312 313 311
330 330 330 329 328 327 327 327 326 326 326 325 324 323 323 323 322 321 319 318 317 317 320 292 293 292 292 293 293 307 310 309 308 307 306 305 304 304 304 304 303 303 303 301 301 292 300 305 305 305 304 304 304 303 302 298 294 296 304 308 310 310 311
330 330 330 329 328 328 327 327 327 327 325 325 323 322 323 323 322 322 320 318 318 317 319 297 292 292 292 292 296 308 310 309 309 308 307 306 305 304 304 303 303 302 302 301 296 291 293 300 305 304 303 304 303 302 302 301 296 293 293 293 292 291 292
328 327 326 327 327 328 328 328 328 327 325 322 321 322 322 322 322 322 320 319 318 317 319 303 292 292 292 291 299 308 309 309 310 310 308 308 307 305 304 304 305 304 302 300 291 290 292 303 304 303 303 303 302 302 301 302 301 300 292 292 292 291 291
329 329 326 324 325 325 327 326 325 323 322 322 322 322 321 321 321 321 321 320 318 317 319 307 292 292 292 292 299 310 310 309 310 310 309 308 309 306 303 301 302 304 304 301 288 291 290 300 304 304 304 303 301 302 303 305 303 303 305 304 305 305 302
329 329 327 327 325 324 326 324 323 322 320 320 321 321 321 320 320 320 321 320 320 318 318 317 300 292 292 292 294 309 311 308 309 310 310 308 308 308 305 303 301 292 291 290 290 289 291 290 305 305 305 304 303 301 305 306 305 304 303 304 305 307 308
328 329 329 329 330 327 326 323 323 321 320 320 321 321 321 320 319 320 321 321 320 319 318 319 306 292 292 292 292 298 311 310 310 310 310 308 308 308 306 304 303 295 290 290 290 289 291 291 292 307 306 307 306 305 302 302 301 301 304 303 304 304 305
329 329 329 329 329 329 326 325 322 321 320 320 321 321 321 320 319 320 321 321 321 320 319 316 315 294 292 292 292 292 307 311 311 311 309 309 308 309 308 307 306 297 290 290 290 291 289 292 290 305 305 292 292 294 306 305 304 304 303 303 302 302 302
327 327 328 329 328 328 328 324 323 321 319 319 319 320 321 321 320 320 320 320 320 320 320 317 307 303 293 292 291 292 294 303 299 312 310 309 309 309 310 309 307 295 291 290 290 290 291 289 294 301 289 292 293 290 298 307 305 304 302 301 301 302 301
325 326 327 328 327 327 326 325 323 323 319 317 317 319 319 321 320 320 319 319 320 319 320 319 307 302 299 291 292 291 292 292 296 309 312 311 311 310 309 310 306 291 291 290 290 290 290 292 299 289 291 289 290 293 303 305 304 304 300 299 299 299 300
Wind_Speed
2 4 4 3 2 2 3 3 2 3 5 5 6 6 6 6 5 4 4 4 4 4 3 4 5 5 5 6 6 6 5 5 5 4 4 3 3 2 2 3 2 1 2 1 4 4 6 7 5 6 6 7 8 8 7 7 8 8 8 7 8 8 7
2 3 3 3 2 2 2 2 2 3 4 5 5 5 6 5 5 4 4 4 4 4 4 4 4 5 6 6 7 6 6 5 5 5 4 4 4 4 3 2 2 2 2 2 2 3 2 6 7 7 8 7 8 8 7 7 8 7 7 7 6 6 6
3 3 2 3 3 2 2 1 1 1 3 3 4 5 5 5 5 5 4 4 4 4 4 5 5 5 5 6 6 6 7 6 5 5 5 4 4 4 3 3 3 2 1 1 0 1 4 10 7 7 7 7 7 7 6 6 8 7 8 7 7 7 7
4 4 3 4 3 2 1 1 1 2 2 3 3 3 4 4 4 4 4 4 4 4 4 4 4 5 5 5 5 6 6 7 6 5 4 5 4 4 4 3 3 3 3 4 2 2 4 7 8 7 5 6 9 8 5 5 7 8 8 8 8 8 8
4 4 4 3 3 3 2 1 1 1 1 1 2 2 3 4 3 3 3 3 3 3 3 3 4 4 4 4 5 5 6 6 6 6 5 5 5 3 4 4 3 3 2 3 4 3 4 5 6 9 7 8 8 8 5 7 8 8 8 8 8 8 8
4 3 3 3 3 2 2 1 1 1 1 1 2 2 3 2 1 2 2 2 2 3 3 2 3 4 4 3 4 5 5 6 5 5 4 5 4 4 3 3 3 3 3 3 3 3 3 4 5 8 6 7 9 8 6 4 6 6 7 7 7 7 8
4 3 2 3 3 2 2 2 1 1 1 1 2 2 2 1 1 2 1 2 2 2 2 3 3 3 4 3 3 4 4 4 4 3 3 3 3 4 3 3 3 3 3 4 3 2 1 5 4 7 8 7 9 8 5 4 5 6 7 6 7 7 7
3 3 3 2 2 2 2 2 1 1 1 2 2 2 2 1 1 2 2 2 2 2 2 2 2 1 3 3 3 3 3 3 3 3 3 3 3 4 4 3 3 3 4 3 3 2 1 1 4 9 8 10 6 7 6 5 6 7 6 6 6 7 7
3 2 2 2 3 2 3 2 3 1 1 1 2 1 1 0 2 1 2 2 1 2 1 1 2 2 3 3 2 2 3 2 3 3 2 2 2 2 3 3 2 4 4 4 3 1 1 1 1 5 8 7 8 8 6 5 5 6 5 6 6 6 7
4 4 3 3 3 3 3 2 2 2 2 1 1 1 1 1 2 1 2 2 2 1 1 2 2 3 3 2 2 2 3 2 3 3 3 2 2 1 2 2 3 2 3 3 3 1 1 1 2 2 4 4 3 8 7 6 5 5 5 2 4 5 6
4 4 3 3 4 4 3 3 3 3 3 2 1 1 1 2 2 2 2 1 1 1 1 1 2 3 2 2 1 2 3 2 2 3 3 3 2 2 2 2 2 2 3 3 3 3 1 2 1 0 3 6 7 6 6 8 7 5 5 4 4 6 5
5 4 3 3 3 4 4 4 4 3 3 2 1 1 2 2 3 2 2 2 1 1 1 2 2 2 3 2 1 1 2 2 2 3 3 3 2 2 2 2 2 2 2 2 3 2 2 1 3 3 3 0 3 1 8 7 9 5 5 6 5 5 6
5 4 3 3 4 4 4 5 4 4 3 3 2 2 2 3 3 3 2 2 2 1 1 1 2 2 2 2 2 2 2 1 2 2 3 3 2 2 2 2 3 3 2 2 2 3 1 2 1 3 4 4 3 2 3 5 7 8 5 6 6 6 6
5 4 3 4 3 3 3 3 4 4 4 4 3 3 3 4 4 3 3 2 1 2 1 1 2 1 1 1 2 2 2 2 1 2 2 3 2 2 2 2 3 3 3 3 3 2 2 1 3 2 3 4 3 3 3 6 8 9 7 5 6 6 7
5 5 5 5 5 5 5 5 5 5 5 4 4 4 4 4 4 5 3 3 2 2 1 2 2 1 1 0 1 1 2 2 2 1 1 2 3 2 2 3 3 3 3 3 3 3 2 1 1 3 2 2 2 3 4 5 7 8 9 7 6 6 6
5 5 7 6 7 7 6 7 7 7 6 5 5 5 4 5 6 5 5 4 3 2 1 2 2 1 1 1 1 1 1 2 1 0 1 1 2 2 2 2 2 2 2 2 2 2 2 1 1 1 3 3 3 4 4 5 4 7 8 7 6 6 5
10 8 7 7 8 7 7 8 8 8 8 6 6 5 4 6 6 5 5 4 4 3 2 2 1 2 2 2 2 2 1 1 0 1 1 2 2 2 2 2 2 2 2 2 3 2 2 2 1 3 3 4 4 5 4 4 4 5 5 8 7 6 6
10 9 10 8 9 9 9 9 8 9 8 7 6 5 5 6 6 6 5 5 5 4 3 2 2 2 2 1 2 1 1 2 1 2 2 3 2 2 2 2 3 2 2 2 3 3 4 2 3 3 4 4 5 5 4 3 4 5 5 6 6 5 5
12 12 10 9 9 9 9 10 9 9 9 8 7 6 6 6 6 7 6 6 5 4 3 2 2 2 2 2 2 2 2 2 2 3 3 2 3 3 2 3 2 2 3 3 4 4 4 4 3 4 4 4 5 4 3 4 4 5 6 6 6 6 5
11 11 11 10 9 10 11 10 10 10 9 8 8 7 7 7 6 7 6 5 5 5 4 3 2 2 2 3 3 3 3 3 3 2 2 3 3 3 3 3 3 3 3 3 3 4 4 4 4 5 4 5 4 4 4 4 4 5 5 6 6 6 6
11 11 11 10 10 10 10 10 10 10 9 9 8 8 7 7 7 6 6 6 5 5 4 4 3 2 2 3 3 3 3 3 4 3 3 3 3 3 3 3 3 4 5 5 5 4 3 3 3 4 4 3 4 3 3 4 4 5 5 5 5 6 5
9 10 9 9 8 8 10 10 10 10 9 9 7 8 7 7 7 7 7 6 6 5 5 4 3 2 3 3 3 4 3 4 3 3 4 4 3 3 4 5 5 6 7 9 11 9 8 8 3 3 3 3 2 2 3 3 4 4 4 5 5 5 5
10 9 9 9 9 9 10 11 11 10 10 10 9 8 7 7 7 8 8 8 7 5 5 3 6 6 7 1 4 3 4 4 3 4 3 4 4 5 5 6 7 10 10 11 11 10 10 11 12 9 5 3 2 2 2 2 3 3 4 4 4 5 5
10 11 11 10 8 9 12 11 11 12 11 10 9 8 7 7 7 7 8 8 7 6 5 4 9 5 3 5 2 4 4 4 4 3 3 3 4 5 5 6 6 7 8 9 9 10 10 9 11 11 12 11 10 7 1 2 2 1 3 3 4 4 4
9 11 12 12 12 12 13 13 13 12 11 11 10 9 8 8 8 7 7 7 7 6 5 10 11 9 5 5 7 2 4 4 3 3 3 3 4 4 4 4 4 3 4 5 6 7 9 10 9 10 11 11 11 11 9 7 2 2 2 2 3 3 3
7 9 11 12 13 13 13 14 13 13 13 11 10 10 10 9 8 8 7 8 8 7 5 11 12 10 8 6 6 6 5 4 4 4 3 3 3 3 4 4 3 4 5 3 4 6 7 7 8 8 9 10 10 10 10 10 8 7 3 1 2 3 3
8 9 9 11 11 12 13 13 12 11 11 11 11 10 10 10 9 9 9 8 8 7 6 12 12 11 10 8 8 9 4 4 4 4 4 3 3 3 3 3 4 4 4 3 4 4 4 5 4 4 4 4 5 6 6 6 4 6 7 3 1 3 2
9 10 9 10 10 12 12 12 12 11 10 11 11 11 10 10 9 9 9 9 8 8 6 14 13 12 11 10 10 9 4 4 4 4 4 4 3 3 3 2 3 4 4 3 4 4 3 4 4 4 4 5 5 5 6 6 6 3 2 0 2 3 4
9 9 9 10 11 11 12 12 12 11 10 10 9 9 9 9 10 10 10 10 8 9 8 16 14 13 12 12 10 6 5 5 5 5 5 4 4 3 3 3 4 4 4 5 5 5 6 1 5 5 5 6 6 7 7 6 7 10 9 7 6 6 5
8 7 7 7 8 9 10 12 11 10 10 10 10 10 10 10 10 10 11 10 10 9 8 13 15 14 13 12 10 7 6 6 5 6 5 5 4 4 4 4 4 4 5 5 4 3 3 6 5 5 5 5 5 6 6 5 7 8 9 9 9 9 8
7 6 6 5 6 9 10 9 9 4 6 8 10 11 10 10 10 10 11 11 11 10 8 13 16 15 14 14 12 8 7 6 7 6 6 5 5 4 4 6 4 4 4 6 5 2 5 6 4 5 6 6 6 6 5 5 4 5 6 8 8 7 6
7 5 8 10 10 9 7 2 5 5 8 7 8 8 9 9 9 9 9 10 11 11 8 11 16 16 15 16 13 9 8 7 7 7 6 6 5 5 6 5 3 7 5 8 7 4 5 7 3 4 5 5 5 5 5 5 4 5 5 5 5 5 5
8 7 4 9 8 7 2 5 8 7 8 9 8 8 8 9 9 9 9 10 9 11 10 9 14 17 17 16 16 10 8 8 8 8 7 7 6 6 7 6 6 6 10 10 7 4 6 7 3 4 3 4 4 5 4 4 4 3 4 3 3 3 4
9 9 7 7 7 8 6 9 9 10 10 10 11 10 10 9 10 10 10 11 10 11 11 9 13 18 17 17 18 14 8 9 8 8 8 7 7 7 7 6 8 9 9 9 7 5 3 5 8 1 2 4 5 6 3 5 4 1 4 4 4 4 4
8 7 8 7 7 6 9 10 7 6 8 8 10 10 9 10 10 11 10 11 11 11 11 12 10 17 17 17 17 18 10 9 8 9 8 8 7 7 7 7 7 11 11 10 8 6 3 3 6 4 8 7 7 3 2 4 3 4 4 4 4 4 5
8 7 7 7 8 7 5 8 8 9 9 10 11 11 11 11 10 11 10 9 10 11 11 11 14 14 17 17 18 18 16 10 7 7 8 8 8 6 7 7 9 16 14 12 9 8 6 1 5 5 7 8 4 2 6 2 2 2 2 3 3 3 3
8 8 8 8 8 8 7 6 9 9 8 8 8 10 11 12 12 11 11 10 9 10 11 10 14 17 16 19 17 18 18 16 8 9 7 7 7 6 7 7 10 17 15 14 12 10 7 7 1 10 6 5 3 4 5 2 4 2 3 4 3 4 3
Wind_Direction
112 117 142 122 106 116 105 82 76 70 45 28 21 25 18 32 22 24 26 31 19 44 27 37 31 27 22 27 21 20 25 22 19 10 6 5 8 38 13 14 0 15 338 289 280 275 132 133 99 88 88 88 80 66 60 68 70 69 80 73 71 65 57
137 145 150 142 138 111 112 97 40 31 45 23 19 21 19 23 20 20 16 27 24 26 17 35 33 32 27 27 27 24 19 24 19 15 9 17 24 27 341 36 333 357 359 14 351 270 205 131 130 131 122 101 85 72 69 59 65 67 67 66 62 63 69
169 152 172 150 164 174 142 125 80 48 25 31 22 20 8 17 13 9 12 25 24 26 26 31 24 26 26 29 27 28 23 20 25 17 13 21 29 29 23 3 3 341 296 247 177 241 218 149 138 150 147 132 100 82 70 65 69 69 71 67 66 59 56
171 168 176 173 170 186 168 137 118 48 25 25 15 27 13 11 12 10 9 18 30 22 20 26 20 19 15 16 22 13 23 15 17 15 19 22 24 34 28 29 22 14 2 337 346 343 304 109 147 144 145 120 114 110 89 73 80 75 76 70 70 66 67
177 180 189 184 183 188 173 145 116 128 66 32 17 16 31 4 13 9 26 30 37 33 24 26 22 19 11 10 12 13 9 11 16 6 18 17 23 29 46 37 34 24 18 340 5 336 33 122 147 143 132 122 115 105 94 83 72 81 78 78 79 80 75
192 199 199 184 186 197 175 155 187 79 118 57 45 14 57 31 15 31 23 37 50 50 40 35 60 30 11 6 14 9 9 10 16 3 20 15 10 14 21 39 30 21 26 25 1 353 90 136 149 144 137 144 125 119 113 120 101 82 76 79 77 74 77
195 201 202 190 175 202 169 160 201 58 74 59 61 41 27 47 68 61 40 49 42 52 65 51 44 38 2 1 5 10 12 16 18 356 34 16 20 16 10 25 23 30 27 17 22 0 112 154 164 146 151 133 121 116 124 132 128 99 84 80 77 76 76
200 197 196 181 174 191 172 155 143 125 42 48 51 46 54 92 100 70 51 67 59 62 60 29 8 29 8 344 4 4 36 3 38 20 50 25 23 20 25 13 18 38 15 20 35 14 122 236 151 152 150 127 125 129 124 104 84 80 92 74 80 87 82
220 209 193 180 176 194 169 174 141 151 93 87 74 56 65 135 109 117 97 69 84 74 48 26 6 357 1 356 343 20 40 25 63 39 45 75 47 29 32 2 359 31 10 9 23 16 15 55 21 155 142 142 133 131 127 127 112 97 100 104 88 84 93
214 216 215 186 186 183 177 176 154 152 127 179 105 61 188 151 183 147 109 103 107 87 40 32 18 8 354 359 18 31 38 51 60 66 56 50 71 18 51 3 15 18 18 1 32 47 79 347 135 278 59 91 168 139 158 143 126 127 121 87 111 89 79
223 218 218 199 187 185 181 179 166 167 185 164 161 123 198 184 164 204 148 134 77 53 36 31 18 13 348 33 21 45 31 26 69 70 51 45 35 43 36 18 16 29 24 2 29 44 119 162 172 135 151 178 147 166 158 148 138 146 133 131 126 113 102
220 226 215 200 196 198 189 187 181 181 179 189 200 193 201 194 197 183 187 167 165 122 63 33 356 22 8 24 20 60 43 23 46 64 58 36 30 32 40 55 35 53 19 21 360 43 57 199 157 166 159 252 157 139 154 144 137 139 156 132 114 121 125
213 213 203 200 207 215 200 194 182 186 197 208 198 240 237 210 202 204 193 195 180 151 101 31 17 11 27 26 12 31 54 16 46 55 68 53 39 29 65 77 53 36 7 348 38 0 14 114 223 157 166 154 172 177 146 154 131 139 150 131 138 138 123
202 201 199 202 217 217 226 228 199 202 200 214 209 226 227 226 206 208 199 204 202 161 158 81 20 357 45 48 31 19 6 13 17 49 59 80 65 43 42 60 68 50 20 9 3 349 356 345 158 222 162 166 163 160 154 133 126 131 133 141 146 135 126
193 196 199 202 206 207 213 218 213 213 216 206 218 228 223 220 210 217 214 199 192 165 160 80 23 5 34 117 83 349 346 338 345 66 14 86 84 77 42 41 65 49 14 9 356 353 354 309 222 175 186 171 160 142 128 133 126 135 138 154 144 133 146
170 198 202 208 209 206 208 218 211 214 216 205 212 221 219 207 218 210 191 208 191 170 150 89 44 37 44 334 354 25 332 346 326 311 172 87 87 89 91 80 66 45 359 13 18 26 6 333 307 122 149 151 126 114 121 125 138 133 146 146 148 158 150
168 190 193 202 208 206 222 216 208 213 216 209 206 209 215 213 211 208 201 199 184 185 163 143 104 44 27 10 346 10 23 77 124 167 90 105 82 60 60 82 68 43 6 42 31 54 59 44 76 95 96 98 130 128 121 132 131 144 151 146 165 163 152
177 187 198 194 203 216 225 218 208 212 211 208 208 202 206 214 206 205 198 199 185 179 175 152 122 120 112 44 36 59 63 77 109 101 94 89 67 59 71 59 48 46 25 56 65 63 65 52 90 108 129 129 127 127 139 137 132 148 153 153 160 138 152
191 194 193 192 201 214 227 220 210 212 212 208 203 206 206 201 207 202 199 197 185 173 163 148 118 88 93 100 94 75 81 106 102 108 109 92 84 80 63 62 66 45 50 53 63 59 54 75 95 119 130 140 138 146 131 122 130 141 150 145 145 143 164
196 192 189 196 200 212 221 219 212 210 206 209 203 208 203 203 206 213 197 190 183 171 163 156 123 119 112 106 111 108 118 115 112 97 94 98 97 86 72 79 73 64 57 55 57 57 70 75 83 94 109 113 118 125 140 140 131 142 148 150 155 159 162
204 198 193 194 203 213 219 214 214 209 204 207 208 209 205 201 199 212 196 194 183 168 163 172 154 136 120 120 128 132 122 120 111 112 109 98 93 91 91 84 70 53 40 30 19 31 29 78 96 105 102 113 117 139 131 135 150 153 154 163 160 161 170
211 200 192 194 207 222 222 218 212 209 203 206 209 211 201 204 196 206 193 193 182 177 178 169 163 163 138 135 144 137 124 114 117 113 113 108 102 97 91 73 52 53 54 52 42 34 31 10 351 121 114 116 126 133 150 147 165 155 157 163 157 162 165
211 197 185 192 206 214 218 217 213 209 203 205 203 208 202 204 202 203 196 191 185 182 180 173 88 40 350 138 156 135 133 125 117 112 110 108 102 96 93 89 81 76 71 63 55 44 38 35 31 27 28 37 76 140 146 169 157 169 159 169 167 166 175
198 201 189 192 201 215 217 212 208 207 203 203 202 199 204 201 207 205 198 191 184 188 187 136 124 130 139 307 214 151 138 128 121 125 130 117 118 115 113 113 115 122 110 91 74 64 51 49 52 51 46 42 30 16 359 166 164 150 185 175 156 181 182
200 200 190 196 200 209 214 211 206 203 199 198 197 196 199 205 202 203 202 194 190 190 185 126 149 148 173 215 271 177 145 136 136 135 125 129 125 117 116 116 110 103 82 82 110 98 78 65 68 68 59 49 41 40 39 20 3 191 208 186 166 188 179
222 210 201 201 203 205 207 207 205 201 199 194 191 196 197 200 200 198 201 200 195 190 170 144 153 162 171 200 256 262 147 140 146 135 138 124 110 119 122 126 124 113 108 162 149 114 112 99 86 87 93 83 62 49 39 34 26 2 340 221 198 169 198
259 232 213 207 203 205 207 207 203 200 197 191 194 195 197 197 198 196 199 200 196 192 172 152 163 166 173 191 221 260 136 160 135 132 135 128 130 122 125 130 134 132 131 137 104 130 123 132 134 137 125 101 96 101 95 94 58 25 351 339 201 182 118
234 241 225 210 205 206 208 208 203 199 196 193 195 197 195 198 197 198 197 200 197 195 157 153 167 169 174 186 201 252 158 164 150 138 137 130 128 124 112 108 110 117 125 120 77 13 130 129 123 115 114 104 88 69 57 41 28 29 126 15 41 87 120
236 233 225 214 212 212 212 207 200 195 195 194 199 200 200 201 197 196 199 196 202 198 145 158 165 172 176 184 192 216 172 176 159 152 147 145 149 147 138 137 130 122 112 108 76 358 340 103 131 126 120 111 101 90 74 58 33 36 30 30 30 34 46
282 259 241 231 226 228 220 213 205 198 194 194 193 198 203 202 199 198 195 196 198 203 155 165 167 172 178 183 190 203 171 189 162 161 158 150 157 145 155 154 141 126 127 114 98 332 322 307 132 134 125 119 113 108 104 100 81 58 60 64 59 57 52
218 241 302 303 280 254 240 222 216 179 214 199 199 201 203 204 204 202 198 195 197 202 184 162 170 172 178 184 202 199 183 186 169 170 159 167 156 155 106 38 343 138 125 122 126 244 274 280 136 131 130 131 125 118 119 122 117 98 103 92 84 81 80
296 250 174 231 230 237 242 221 102 203 228 226 212 203 202 206 205 206 204 202 189 199 195 161 173 173 180 187 205 208 196 181 178 178 170 168 167 153 142 165 29 10 98 117 145 224 271 295 147 136 134 136 123 118 112 130 127 129 144 146 143 138 129
306 298 267 213 234 254 176 165 176 204 228 233 226 214 203 205 202 207 203 203 192 199 205 164 174 178 182 188 207 223 194 194 182 180 184 171 177 163 160 162 141 105 114 139 161 202 270 313 315 135 155 130 125 116 123 94 56 78 103 108 117 137 132
315 307 291 274 253 204 181 225 204 209 216 223 228 219 211 209 210 213 207 201 199 196 208 188 169 181 184 190 202 224 210 201 189 182 185 179 183 173 173 174 166 137 147 152 171 178 274 315 327 291 85 76 65 73 94 114 107 307 112 119 134 151 155
314 305 299 292 274 247 196 211 220 218 226 228 224 222 216 213 216 215 210 203 201 200 195 197 163 181 186 191 200 213 234 200 203 182 192 184 190 178 182 173 160 153 158 164 167 185 182 266 304 314 71 73 65 60 291 121 149 159 150 160 149 144 155
313 308 302 295 285 272 242 202 220 237 224 217 223 222 220 222 219 216 212 204 203 200 194 188 160 171 187 192 198 210 230 250 198 224 192 190 195 177 178 175 140 149 163 166 173 176 184 154 249 80 96 88 81 4 283 196 114 166 138 120 123 126 137
322 316 307 300 290 284 273 226 199 236 237 232 224 226 234 235 230 222 213 208 207 201 195 192 166 166 178 191 196 206 216 237 264 216 207 194 195 188 171 181 142 157 162 168 171 176 175 195 114 113 111 112 133 233 263 145 185 145 143 138 149 143 146